Regional Weather Roundup
Issued by NWS Sioux Falls, SD

Home | Current Version | Previous Version | Graphics & Text | Print | Product List | Glossary Off
Versions: 1 2 3 4 5 6 7 8 9 10 11 12 13 14 15 16 17 18 19 20 21 22 23 24 25 26 27 28 29 30 31 32 33 34 35 36 37 38 39 40 41 42 43 44 45 46 47 48 49 50

000
ASUS43 KFSD 192202
RWRFSD

WEATHER ROUNDUP FOR SE SOUTH DAKOTA/SW MINNESOTA/NW IOWA
NATIONAL WEATHER SERVICE SIOUX FALLS SD
400 PM CST FRI JAN 19 2018

NOTE: "FAIR" INDICATES FEW OR NO CLOUDS BELOW 12,000 FEET WITH NO
SIGNIFICANT WEATHER AND OR OBSTRUCTIONS TO VISIBILITY.


SDZ038>040-050-052>070-192300-
SOUTHEAST SOUTH DAKOTA

CITY           SKY/WX    TMP DP  RH WIND       PRES   REMARKS
BROOKINGS      CLOUDY    43  32  65 NW9       29.58R
CHAMBERLAIN    CLOUDY    44  35  69 W6        29.66R
HURON          PTSUNNY   46  33  60 NW7       29.62R
MADISON        FAIR      37  37 100 NW10      29.59R
MITCHELL       CLOUDY    45  35  68 NW8       29.63R
SIOUX FALLS    CLOUDY    42  34  73 NW12      29.59R
WINNER         FAIR      46  34  62 NW9       29.67R
YANKTON        CLOUDY    49  34  56 NW17      29.62R
$$

MNZ071-072-080-081-089-090-097-098-192300-
SOUTHWEST MINNESOTA

CITY           SKY/WX    TMP DP  RH WIND       PRES   REMARKS
FAIRMONT       CLOUDY    47  35  63 W9        29.55R
JACKSON        CLOUDY    46  34  61 W10       29.55R
LUVERNE        CLOUDY    41  32  70 NW12      29.58R
MARSHALL       CLOUDY    46  33  60 NW7       29.56R
MONTEVIDEO     CLEAR     46  34  61 NW5       29.55R
PIPESTONE      CLOUDY    41  34  75 NW7       29.57R
REDWOOD FALLS  CLOUDY    43  34  70 W8        29.53R
TRACY          CLOUDY    45  35  67 NW10      29.56R
WINDOM         CLOUDY    43  25  49 W9        29.55R
WORTHINGTON    CLOUDY    44  34  67 W13       29.57R
$$

IAZ001>003-012>014-020>022-031-032-NEZ013-014-SDZ071-192300-
NORTHWEST IOWA

CITY           SKY/WX    TMP DP  RH WIND       PRES   REMARKS
CHEROKEE       CLOUDY    47  30  50 SW5       29.58R
DENISON        CLOUDY    45  30  57 SW9       29.65R
ESTHERVILLE    CLOUDY    46  34  62 SW9       29.55R
LE MARS        CLOUDY    54  30  40 SW6       29.58R
ORANGE CITY    CLOUDY    54  36  50 W7        29.57R
SHELDON        CLOUDY    50  36  57 W9        29.55R
SIOUX CITY     CLOUDY    55  32  41 S6        29.58S
SPENCER        CLOUDY    48  32  53 SW8       29.56R
STORM LAKE     CLOUDY    48  30  49 SW12      29.58R
$$

ABBREVIATIONS USED IN REMARKS
   TC - TEMPERATURE IN CELSIUS
  WCI - WIND CHILL INDEX
   HX - HEAT INDEX
  VSB - VISIBILITY





USA.gov is the U.S. government's official web portal to all federal, state and local government web resources and services.